Location: Dal�� Lhota
(48.7500°N, 14.0167°E)
Time: 02:18:07
(UTC+00:00)

ISS - Pass Details

Date: 29 June 2021
Orbit: 419 x 421 km, 51.6° (Epoch: 02 August)

Event Time Altitude Azimuth Distance (km) Brightness Sun altitude
Exits shadow 02:17:30 - 206° (SSW) 1,680 -1.3 -6.5°
Reaches altitude 10° 02:18:01 10° 202° (SSW) 1,495 -1.5 -6.4°
Maximum altitude 02:20:52 26° 143° (SE) 859 -2.3 -6.1°
Drops below altitude 10° 02:23:45 10° 84° (E) 1,502 -0.1 -5.8°
Sets 02:26:03 0° 72° (ENE) 2,370 1.4 -5.5°
